This is the latest recevied weather packets stored in our database for station/object K6JWN. If no packets are shown the sender has not sent any weather packets the latest 10 day(s).
| Time | Temp. | Humidity | Pressure | Rain* | Wind** | Luminosity | Snow |
|---|---|---|---|---|---|---|---|
| 1777741937 | 15.56° C | 58% | 1012.3 hPa | 0 mm | - | - | - |
| 1777741336 | 16.11° C | 58% | 1012.1 hPa | 0 mm | - | - | - |
| 1777740736 | 16.67° C | 60% | 1012.2 hPa | 0 mm | - | - | - |
| 1777740136 | 15.56° C | 61% | 1012 hPa | 0 mm | - | - | - |
| 1777739536 | 15.56° C | 63% | 1012.1 hPa | 0 mm | - | - | - |
| 1777738936 | 15° C | 63% | 1012.2 hPa | 0 mm | - | - | - |
| 1777738337 | 14.44° C | 64% | 1012.1 hPa | 0 mm | - | - | - |
| 1777737757 | 13.89° C | 66% | 1012 hPa | 0 mm | - | - | - |
| 1777737137 | 13.89° C | 66% | 1012 hPa | 0 mm | - | - | - |
| 1777736537 | 13.33° C | 67% | 1011.9 hPa | 0 mm | - | - | - |
| 1777735937 | 13.33° C | 67% | 1011.8 hPa | 0 mm | - | - | - |
| 1777735337 | 13.33° C | 68% | 1011.8 hPa | 0 mm | - | - | - |
| 1777734736 | 12.78° C | 71% | 1011.8 hPa | 0 mm | - | - | - |
| 1777734137 | 12.22° C | 73% | 1011.9 hPa | 0 mm | - | - | - |
| 1777733536 | 12.22° C | 74% | 1011.8 hPa | 0 mm | - | - | - |
| 1777732936 | 11.67° C | 78% | 1011.7 hPa | 0 mm | - | - | - |
| 1777732337 | 11.67° C | 79% | 1011.6 hPa | 0 mm | - | - | - |
| 1777731736 | 11.67° C | 80% | 1011.6 hPa | 0 mm | - | - | - |
| 1777731136 | 11.11° C | 81% | 1011.5 hPa | 0 mm | - | - | - |
| 1777730536 | 11.11° C | 81% | 1011.3 hPa | 0 mm | - | - | - |
| 1777729936 | 11.11° C | 81% | 1011.3 hPa | 0 mm | - | - | - |
| 1777729336 | 11.11° C | 81% | 1011.1 hPa | 0 mm | - | - | - |
| 1777728736 | 11.11° C | 81% | 1010.8 hPa | 0 mm | - | - | - |
| 1777728136 | 11.11° C | 81% | 1010.8 hPa | 0 mm | - | - | - |
| 1777727537 | 11.11° C | 81% | 1010.8 hPa | 0 mm | - | - | - |
* Rain latest hour (hover to see other rain measurements)
** Current wind speed in m/s (hover to see current wind gust speed)